Location: Franzen
(48.6167°N, 15.3833°E)
Time: 07:38:54
(UTC+00:00)

Transit 2A - Pass Details

Date: 10 August 2021
Orbit: 594 x 964 km, 66.7° (Epoch: 24 September)

Event Time Altitude Azimuth Distance (km) Brightness Sun altitude
Rises 03:31:52 0° 218° (SW) 2,852 - -2.8°
Exits shadow 03:32:02 - 218° (SW) 2,785 8.3 -2.7°
Reaches altitude 10° 03:34:02 10° 220° (SW) 1,977 7.6 -2.4°
Maximum altitude 03:38:28 77° 307° (NW) 671 5.7 -1.8°
Drops below altitude 10° 03:43:20 10° 33° (NNE) 2,162 9.5 -1.1°
Sets 03:45:48 0° 35° (NE) 3,144 10.4 -0.7°
